SBQV

Details ICAO SBQV (VDC)
Name VITORIA DA CONQUISTA
Region Brazil
Timezone America/Bahia (UTC-3.0)
Plans Departing 12
Arriving 26
Stats Elevation 2,998 ft / 914 m (AMSL)
Location -14.862759° -40.863104°
Runways 1
Magnetic Variation 23.456° W
Sunrise 2018-06-19 09:08:42 UTC / 2018-06-19 06:08:42 Local
Sunset 2018-06-19 20:23:26 UTC / 2018-06-19 17:23:26 Local
Advertisement - Login to hide

Runways

ID Width Length Bearing (true) Bearing (mag) Surface Threshold Offset Overrun Length
15 98 ft / 30 m 5,831 ft / 1,777 m 126.17° 149.63° Asphalt 0 ft / 0 m 175 ft / 53 m
33 98 ft / 30 m 5,831 ft / 1,777 m 306.17° 329.63° Asphalt 0 ft / 0 m 0 ft / 0 m

Map

Weather


0- 5 10 15 20 25 30 35+ Temperature / ° C

Clouds and Precipitation
Forecast for 2018-06-19 12:00 UTC. Updated an hour ago

Ground ~20,000 ft ~40,000 ft Winds

METAR

SBQV 191000Z 16013KT 9999 BKN008 15/14 Q1025

TAF

Not found

Frequencies

Tower 130.30 MHz RDO
Warning: Do not use this data for real-world aviation or navigation. No guarantee of current accuracy is given.